This is the latest recevied weather packets stored in our database for station/object 4S6DRJ-13. If no packets are shown the sender has not sent any weather packets the latest 10 day(s).
| Time | Temp. | Humidity | Pressure | Rain* | Wind** | Luminosity | Snow |
|---|---|---|---|---|---|---|---|
| 1787776549 | 25.56° C | 95% | 1009.7 hPa | 0 mm | 0.89 m/s, 137° | 0 W/m² | - |
| 1787776488 | 25.56° C | 95% | 1009.7 hPa | 0 mm | 0.89 m/s, 130° | 0 W/m² | - |
| 1787776428 | 25.56° C | 95% | 1009.8 hPa | 0 mm | 0.89 m/s, 162° | 0 W/m² | - |
| 1787776365 | 25.56° C | 95% | 1009.7 hPa | 0 mm | 0 m/s | 0 W/m² | - |
| 1787776304 | 25.56° C | 95% | 1009.8 hPa | 0 mm | 0.45 m/s, 200° | 0 W/m² | - |
| 1787776243 | 25.56° C | 95% | 1009.7 hPa | 0 mm | 0.45 m/s, 168° | 0 W/m² | - |
| 1787776182 | 25.56° C | 95% | 1009.7 hPa | 0 mm | 0 m/s | 0 W/m² | - |
| 1787776121 | 25.56° C | 95% | 1009.7 hPa | 0 mm | 0 m/s | 0 W/m² | - |
| 1787776060 | 25.56° C | 95% | 1009.7 hPa | 0 mm | 0 m/s | 0 W/m² | - |
| 1787775999 | 25.56° C | 95% | 1009.6 hPa | 0 mm | 0 m/s | 0 W/m² | - |
| 1787775938 | 25.56° C | 95% | 1009.8 hPa | 0 mm | 0.45 m/s, 159° | 0 W/m² | - |
| 1787775877 | 25.56° C | 95% | 1009.8 hPa | 0.25 mm | 0.45 m/s, 120° | 0 W/m² | - |
| 1787775820 | 25.56° C | 95% | 1009.7 hPa | 0.25 mm | 0.89 m/s, 125° | 0 W/m² | - |
| 1787775755 | 25.56° C | 95% | 1009.9 hPa | 0.25 mm | 0.89 m/s, 137° | 0 W/m² | - |
| 1787775695 | 25.56° C | 95% | 1009.7 hPa | 0.25 mm | 0.89 m/s, 145° | 0 W/m² | - |
| 1787775634 | 25.56° C | 95% | 1009.8 hPa | 0.25 mm | 0.89 m/s, 144° | 0 W/m² | - |
| 1787775573 | 25.56° C | 95% | 1009.8 hPa | 0.51 mm | 0.89 m/s, 126° | 0 W/m² | - |
| 1787775512 | 25.56° C | 95% | 1010.1 hPa | 0.51 mm | 1.34 m/s, 133° | 0 W/m² | - |
| 1787775451 | 25.56° C | 95% | 1009.9 hPa | 0.51 mm | 0.89 m/s, 139° | 0 W/m² | - |
| 1787775391 | 25.56° C | 95% | 1009.8 hPa | 0.51 mm | 0.89 m/s, 134° | 0 W/m² | - |
| 1787775329 | 25.56° C | 95% | 1009.9 hPa | 0.51 mm | 0.89 m/s, 97° | 0 W/m² | - |
| 1787775268 | 25.56° C | 95% | 1009.8 hPa | 0.51 mm | 0.89 m/s, 125° | 0 W/m² | - |
| 1787775207 | 25.56° C | 95% | 1009.9 hPa | 0.51 mm | 0.89 m/s, 188° | 0 W/m² | - |
| 1787775146 | 25.56° C | 95% | 1009.9 hPa | 0.51 mm | 0.89 m/s, 132° | 0 W/m² | - |
| 1787775085 | 25.56° C | 95% | 1009.9 hPa | 0.51 mm | 0.45 m/s, 128° | 0 W/m² | - |
* Rain latest hour (hover to see other rain measurements)
** Current wind speed in m/s (hover to see current wind gust speed)